Weather History for Lakeland Region, FL

Change the Weather History Date:

Thursday, June 19, 2014

  Actual Average Record
Temperature  
Mean Temperature 79 °F -  
Max Temperature 89 °F 88 °F 100 °F (1998)
Min Temperature 69 °F 71 °F 68 °F (2008)
Cooling Degree Days 14    
Growing Degree Days 29 (Base 50)    
Moisture  
Dew Point 69 °F    
Average Humidity 83    
Maximum Humidity 100    
Minimum Humidity 46    
Precipitation  
Precipitation 0.00 in - - ()
Sea Level Pressure  
Sea Level Pressure 30.12 in    
Wind  
Wind Speed 2 mph (East)    
Max Wind Speed 12 mph    
Max Gust Speed -    
Visibility 11 miles    
Events      
Averages and records for this station are not official NWS values.
T = Trace of Precipitation, MM = Missing Value Source: NWS Daily Summary

Daily Weather History Graph

Daily Weather History Graph

Search for Another Location

Airport:

Trip Planner

Search our weather history database for the weather conditions in past years. The results will help you decide how hot, cold, wet, or windy it might be!

Date:

Astronomy

Jun. 19, 2014 Rise Set
Actual Time 6:31 AM EDT 8:27 PM EDT
Civil Twilight 6:05 AM EDT 8:53 PM EDT
Nautical Twilight 5:32 AM EDT 9:26 PM EDT
Astronomical Twilight 4:58 AM EDT 10:00 PM EDT
Moon 1:01 AM EDT (6/19) 1:26 PM EDT (6/19)
Length of Visible Light 14h 48m
Length of Day
13h 55m
Waning Gibbous, 51% of the Moon is Illuminated
Jun 19
Waning Gibbous
Jun 19
Last Quarter
Jun 27
New
Jul 5
First Quarter
Jul 12
Full

Hourly Weather History & Observations

Time (EDT) Temp. Heat Index Dew Point Humidity Pressure Visibility Wind Dir Wind Speed Gust Speed Precip Events Conditions
12:15 AM 71.6 °F - 71.6 °F 100% 30.15 in 10.0 mi Calm Calm - N/A   Clear
12:35 AM 71.6 °F - 71.6 °F 100% 30.15 in 10.0 mi Calm Calm - N/A   Clear
12:55 AM 71.6 °F - 71.6 °F 100% 30.14 in 10.0 mi Calm Calm - N/A   Clear
1:15 AM 71.6 °F - 71.6 °F 100% 30.14 in 10.0 mi Calm Calm - N/A   Clear
1:35 AM 71.6 °F - 71.6 °F 100% 30.13 in 10.0 mi Calm Calm - N/A   Clear
1:55 AM 71.6 °F - 71.6 °F 100% 30.13 in 10.0 mi Calm Calm - N/A   Clear
2:15 AM 71.6 °F - 71.6 °F 100% 30.13 in 10.0 mi Calm Calm - N/A   Clear
2:35 AM 71.6 °F - 69.8 °F 94% 30.12 in 10.0 mi East 4.6 mph - N/A   Clear
2:55 AM 69.8 °F - 69.8 °F 100% 30.12 in 10.0 mi East 3.5 mph - N/A   Clear
3:15 AM 71.6 °F - 69.8 °F 94% 30.11 in 10.0 mi Calm Calm - N/A   Clear
3:35 AM 69.8 °F - 69.8 °F 100% 30.11 in 10.0 mi ESE 3.5 mph - N/A   Clear
3:55 AM 69.8 °F - 69.8 °F 100% 30.10 in 10.0 mi Calm Calm - N/A   Clear
4:15 AM 69.8 °F - 69.8 °F 100% 30.10 in 10.0 mi Calm Calm - N/A   Clear
4:35 AM 69.8 °F - 69.8 °F 100% 30.09 in 10.0 mi East 3.5 mph - N/A   Clear
4:55 AM 69.8 °F - 69.8 °F 100% 30.10 in 10.0 mi East 3.5 mph - N/A   Clear
5:15 AM 69.8 °F - 69.8 °F 100% 30.10 in 10.0 mi Calm Calm - N/A   Clear
6:50 AM 69.8 °F - 69.8 °F 100% 30.12 in 10.0 mi Calm Calm - N/A   Clear
7:50 AM 75.2 °F - 71.6 °F 89% 30.13 in 10.0 mi East 4.6 mph - N/A   Clear
8:55 AM 77.0 °F - 71.6 °F 83% 30.15 in 10.0 mi Calm Calm - N/A   Clear
9:45 AM 80.6 °F 83.9 °F 69.8 °F 70% 30.15 in 10.0 mi Calm Calm - N/A   Partly Cloudy
10:50 AM 82.4 °F 85.4 °F 68.0 °F 62% 30.15 in 10.0 mi ESE 5.8 mph - N/A   Scattered Clouds
11:45 AM 82.4 °F 84.6 °F 66.2 °F 58% 30.15 in 10.0 mi ENE 5.8 mph - N/A   Scattered Clouds
12:50 PM 84.2 °F 87.3 °F 68.0 °F 58% 30.15 in 12.0 mi NE 3.5 mph - N/A   Mostly Cloudy
1:50 PM 86.0 °F 88.2 °F 66.2 °F 51% 30.12 in 15.0 mi East 5.8 mph - N/A   Mostly Cloudy
2:50 PM 86.0 °F 88.2 °F 66.2 °F 51% 30.11 in 15.0 mi Calm Calm - N/A   Mostly Cloudy
3:54 PM 89.6 °F 92.2 °F 66.2 °F 46% - 15.0 mi Calm Calm - N/A   Mostly Cloudy
4:54 PM 87.8 °F 91.4 °F 68.0 °F 52% 30.08 in 15.0 mi East 9.2 mph - N/A   Mostly Cloudy
5:58 PM 84.2 °F 87.3 °F 68.0 °F 58% 30.08 in 15.0 mi East 11.5 mph - N/A   Mostly Cloudy
6:51 PM 84.2 °F 86.6 °F 66.2 °F 55% 30.08 in 15.0 mi East 11.5 mph - N/A   Scattered Clouds
7:52 PM 77.0 °F - 68.0 °F 74% 30.08 in 15.0 mi SSW 8.1 mph - N/A   Mostly Cloudy
8:54 PM 75.2 °F - 68.0 °F 78% 30.09 in 15.0 mi Calm Calm - N/A   Mostly Cloudy
9:51 PM 75.2 °F - 68.0 °F 78% 30.09 in 15.0 mi Variable 4.6 mph - N/A   Mostly Cloudy
10:15 PM 73.4 °F - 68.0 °F 83% 30.10 in 10.0 mi Calm Calm - N/A   Clear
10:35 PM 73.4 °F - 68.0 °F 83% 30.10 in 10.0 mi Calm Calm - N/A   Clear
10:55 PM 73.4 °F - 68.0 °F 83% 30.11 in 10.0 mi SSW 4.6 mph - N/A   Clear
11:15 PM 73.4 °F - 68.0 °F 83% 30.11 in 10.0 mi Calm Calm - N/A   Clear
11:35 PM 73.4 °F - 68.0 °F 83% 30.11 in 10.0 mi Calm Calm - N/A   Clear